Regional Weather Roundup
Issued by NWS

Home | Current Version | Previous Version | Graphics & Text | Print | Product List | Glossary On
Versions: 1 2 3 4 5 6 7 8 9 10 11 12 13 14 15 16 17 18 19 20 21 22 23 24 25 26 27 28 29 30 31 32 33 34 35 36
000
ASUS45 KBOU 261907
RWRCO

WEATHER ROUNDUP FOR COLORADO
NATIONAL WEATHER SERVICE DENVER/BOULDER CO
1200 PM MST FRI DEC 26 2014

NOTE: "FAIR" INDICATES FEW OR NO CLOUDS BELOW 12000 FEET WITH NO
SIGNIFICANT WEATHER AND/OR OBSTRUCTIONS TO VISIBILITY.

COZ001>005-013-030-031-262000-
...NORTHWEST COLORADO...

CITY           SKY/WX    TMP DP  RH WIND       PRES   REMARKS
CRAIG          CLOUDY    17  11  77 W10       29.83F WCI   5
HAYDEN         CLOUDY    16  10  79 W10       29.80S VSB 1   WCI   3
MEEKER         FLURRIES  18  11  74 W7        29.82F WCI   9
MOUNT WERNER   NOT AVBL
STEAMBOAT SPGS CLOUDY    17  11  78 SW6       29.78R WCI   8
WALDEN         CLOUDY    12   5  73 N5        29.73S WCI   4
$$

COZ006>008-011-262000-
...WEST CENTRAL VALLEYS...

CITY           SKY/WX    TMP DP  RH WIND       PRES   REMARKS
GRAND JUNCTION LGT SNOW  26  24  92 NW12      29.84S FOG     WCI  16
MONTROSE       CLOUDY    26  21  81 N6        29.81F WCI  19
EAGLE          PTSUNNY   28  21  74 CALM      29.75F
RIFLE          MIX PCPN  26  16  65 W8        29.81F WCI  18
DELTA          CLOUDY    33  24  69 SW12      29.81F WCI  24
NUCLA          PTSUNNY   28  21  74 NW6       29.83F WCI  22
$$

COZ017>023-064>068-262000-
...SOUTHWEST COLORADO...

CITY           SKY/WX    TMP DP  RH WIND       PRES   REMARKS
DURANGO        PTSUNNY   24  20  84 SW14      29.73S WCI  12
CORTEZ         CLOUDY    29  21  72 SW9       29.79F WCI  20
PAGOSA SPRINGS FLURRIES  24  18  78 S6        29.71F WCI  16
TELLURIDE      PTSUNNY   18   9  68 SW6       29.70S WCI  10
WOLF CREEK PAS CLOUDY     5   3  92 MISG      29.59S
$$

COZ009-010-012-014-032>034-037-058>063-262000-
...CENTRAL COLORADO...

CITY           SKY/WX    TMP DP  RH WIND       PRES   REMARKS
ASPEN          PTSUNNY   21  14  74 N8        29.68F WCI  11
BUENA VISTA    CLOUDY    17  10  76 CALM      29.76F HAZE
COPPER MTN     CLOUDY    12   3  67 S12       29.58F HAZE    WCI  -2
BERTHOUD PASS  CLOUDY    -4  -9  77 MISG      29.59S HAZE
COTTONWOOD PAS LGT SNOW  12   9  85 E5        29.68F VSB 1   WCI   4
GUNNISON       FAIR      14   9  79 CALM      29.74F
KREMMLING      CLOUDY    19  12  73 CALM      29.75F
LEADVILLE      CLOUDY     7   2  80 S13       29.64F WCI  -9
MONARCH PASS   LGT SNOW   0  -6  78 MISG      29.66F VSB 3/4
SALIDA         CLOUDY    17  12  82 SE6       29.86F WCI   8
SUNLIGHT       SNOW     N/A N/A N/A CALM      29.66S VSB 1/4
WILKERSON PASS LGT SNOW N/A N/A N/A CALM      29.66S
$$

COZ069>075-262000-
...SAN LUIS VALLEY/SANGRE DE CRISTO MOUNTAINS...

CITY           SKY/WX    TMP DP  RH WIND       PRES   REMARKS
ALAMOSA        LGT SNOW  20  14  77 E15       29.68F WCI   6
LA VETA PASS   NOT AVBL
SAGUACHE       LGT SNOW  23  18  80 SE5       29.69F VSB 3/4 WCI  17
$$

COZ035-036-038>040-262000-
...NORTHERN COLORADO FRONT RANGE...

CITY           SKY/WX    TMP DP  RH WIND       PRES   REMARKS
DENVER INTL AP LGT SNOW  18  14  84 N10       29.93F FOG     WCI   6
DMNS CITY PARK   N/A     20  15  81 N5G10     29.93F WCI  13
AURORA         LGT SNOW  18  13  82 N5        29.92F FOG     WCI  11
FRONT RANGE AP LGT SNOW  19  18  93 N3        29.93F
ERIE MUNI ARPT LGT SNOW  20  16  84 N3        29.95F
BOULDER MUN AP LGT SNOW  21  18  86 CALM      29.93F
CENTENNIAL     LGT SNOW  17  12  80 N7        29.90F FOG     WCI   8
BROOMFIELD     CLOUDY    19  14  79 N3        29.92F
FORT COLLINS   FAIR      19  14  79 E3        29.97F
LONGMONT       LGT SNOW  26  18  70 N3        29.97F
$$

COZ041-046-047-076>085-087-088-262000-
...PIKES PEAK/PALMER DIVIDE AND SOUTHERN FOOTHILLS...

CITY           SKY/WX    TMP DP  RH WIND       PRES   REMARKS
COLO. SPRINGS  CLOUDY    21   9  59 N9        29.86F WCI  11
A. F. ACADEMY  FAIR      18   6  60 N16       29.83F WCI   3
ELLICOTT       NOT AVBL
FALCON         CLOUDY    18   9  66 N12G17    29.84F WCI   6
FORT CARSON    CLOUDY    22   9  56 N7        29.86F WCI  14
LIMON          LGT SNOW  16  12  84 N17       29.91F FOG     WCI   0
MONUMENT HILL  CLOUDY    14  10  85 NW9       29.82F HAZE    WCI   2
TRINIDAD       LGT SNOW  20  15  81 N9        29.87F WCI   9
$$

COZ042>045-048>051-090-091-262000-
...NORTHEAST COLORADO...

CITY           SKY/WX    TMP DP  RH WIND       PRES   REMARKS
GREELEY ARPT   FAIR      18  10  73 N7        29.97F WCI   8
AKRON          LGT SNOW  18  14  84 N14       29.96S VSB 3/4 WCI   4
BURLINGTON     LGT SNOW  21  17  84 N17       29.92F FOG     WCI   7
WRAY           LGT SNOW  23  20  88 N13       30.00S WCI  11
STERLING       LGT SNOW  23  19  86 N8        29.99F WCI  14
HOLYOKE        LGT SNOW  25  19  80 N16       29.99F WCI  12
FORT MORGAN    LGT SNOW  21  14  75 NW7       29.99S WCI  12
$$

COZ086-089-092>099-262000-
...SOUTHEAST COLORADO...

CITY           SKY/WX    TMP DP  RH WIND       PRES   REMARKS
PUEBLO         FLURRIES  25  16  68 E7        29.92F WCI  17
LA JUNTA       LGT SNOW  26  20  77 N8        29.94F WCI  18
LAMAR          LGT SNOW  25  20  81 N14       29.94F WCI  13
SPRINGFIELD      N/A     24  20  84 N13       29.91R WCI  12
$$



USA.gov is the U.S. government's official web portal to all federal, state and local government web resources and services.